Waarnemingen

Advertentie
Mijn weer
Santander, Spanje (8023): temperatuur & dauwpunt: 19.06.2018 02:00:00 - 25.06.2018 02:00:00 (CEST)Santander, Spanje (8023): windsnelheid: 19.06.2018 02:00:00 - 25.06.2018 02:00:00 (CEST)Santander, Spanje (8023): windrichting: 19.06.2018 02:00:00 - 25.06.2018 02:00:00 (CEST)Santander, Spanje (8023): luchtdruk: 19.06.2018 02:00:00 - 25.06.2018 02:00:00 (CEST)Santander, Spanje (8023): zicht: 19.06.2018 02:00:00 - 25.06.2018 02:00:00 (CEST)Santander, Spanje (8023): neerslag: 19.06.2018 02:00:00 - 25.06.2018 02:00:00 (CEST)
Datum & Tijd tt [°C] td [°C] ff [km/u] ff [kn] dd ppp [hPa] vv [km] rr [mm]
25.06.2018 02:00:00 - - - - - - - -
25.06.2018 01:00:00 18,2 15,6 16 9 OZO 1017,7 10 0,0
25.06.2018 00:00:00 18,3 16,1 18 10 O 1017,8 8 0,0
24.06.2018 23:00:00 18,3 15,9 16 9 O 1017,6 10 -
24.06.2018 22:00:00 18,6 16,9 22 12 O 1016,8 6 0,0
24.06.2018 21:00:00 19,6 17,0 24 13 O 1016,8 8 0,0
24.06.2018 20:00:00 19,8 16,6 24 13 O 1016,6 20 -
24.06.2018 19:00:00 20,0 17,0 29 16 O 1016,5 12 0,0
24.06.2018 18:00:00 20,3 17,5 31 17 O 1016,9 12 0,0
24.06.2018 17:00:00 20,7 18,5 29 16 O 1016,8 15 -
24.06.2018 16:00:00 20,8 18,6 28 15 O 1016,8 11 0,0
24.06.2018 15:00:00 20,9 18,7 29 16 O 1017,1 12 0,0
24.06.2018 14:00:00 20,8 18,4 29 16 O 1017,2 20 -
24.06.2018 13:00:00 21,0 18,0 29 16 ONO 1017,3 12 0,0
24.06.2018 12:00:00 20,5 16,5 26 14 O 1017,3 11 0,0
24.06.2018 11:00:00 20,6 16,2 24 13 O 1017,5 30 -
24.06.2018 10:00:00 19,9 15,5 16 9 O 1017,6 14 0,0
24.06.2018 09:00:00 20,2 14,1 15 8 O 1017,6 16 0,0
24.06.2018 08:00:00 18,9 14,2 15 8 OZO 1017,6 20 -
24.06.2018 07:00:00 16,9 13,2 21 11 OZO 1017,2 14 0,0
24.06.2018 06:00:00 16,6 13,3 21 11 OZO 1017,1 13 0,0
24.06.2018 05:00:00 17,1 13,4 18 10 O 1017,2 15 -
24.06.2018 04:00:00 16,7 14,7 13 7 O 1017,8 9 0,0
24.06.2018 03:00:00 16,6 12,9 9 5 OZO 1018,2 13 0,0
24.06.2018 02:00:00 17,4 12,9 15 8 OZO 1018,9 15 -
24.06.2018 01:00:00 17,4 13,1 18 10 OZO 1019,2 15 0,0
24.06.2018 00:00:00 17,0 14,8 16 9 OZO 1019,6 9 0,0
23.06.2018 23:00:00 17,2 14,8 15 8 OZO 1019,6 12 -
23.06.2018 22:00:00 18,0 14,9 21 11 O 1019,3 10 0,0
23.06.2018 21:00:00 18,8 15,3 22 12 O 1019,4 11 0,0
23.06.2018 20:00:00 19,2 15,5 31 17 O 1019,3 12 -
23.06.2018 19:00:00 19,4 15,7 34 18 O 1019,2 14 0,0
23.06.2018 18:00:00 19,7 15,3 35 19 O 1019,4 16 0,0
23.06.2018 17:00:00 20,1 15,9 31 17 O 1019,6 14 -
23.06.2018 16:00:00 20,3 16,1 28 15 O 1020,1 17 0,0
23.06.2018 15:00:00 20,3 15,9 29 16 O 1020,6 17 0,0
23.06.2018 14:00:00 20,6 16,2 31 17 O 1021,0 14 -
23.06.2018 13:00:00 20,3 16,1 31 17 ONO 1021,5 16 0,0
23.06.2018 12:00:00 20,3 16,7 29 16 ONO 1021,6 16 0,0
23.06.2018 11:00:00 20,1 16,7 21 11 ONO 1021,4 15 -
23.06.2018 10:00:00 19,5 15,8 11 6 O 1021,7 13 0,0
23.06.2018 09:00:00 19,5 15,4 8 4 OZO 1021,5 16 0,0
23.06.2018 08:00:00 17,4 15,0 9 5 ZZO 1021,4 30 -
23.06.2018 07:00:00 15,5 14,7 13 7 ZZO 1021,1 11 0,0
23.06.2018 06:00:00 15,4 14,4 11 6 ZZO 1021,2 2,5 0,0
23.06.2018 05:00:00 16,1 14,6 5 3 ZZO 1021,3 20 -
23.06.2018 04:00:00 16,3 14,7 4 2 ZZO 1021,6 6 0,0
23.06.2018 03:00:00 16,4 14,8 5 3 ZZO 1021,9 - 0,0
23.06.2018 02:00:00 16,4 14,4 9 5 Z 1022,4 15 -
23.06.2018 01:00:00 16,7 14,5 8 4 ZZO 1022,9 8 0,0
23.06.2018 00:00:00 16,8 14,4 9 5 OZO 1023,0 9 0,0
22.06.2018 23:00:00 17,4 14,5 9 5 OZO 1023,0 18 -
22.06.2018 22:00:00 18,0 14,5 15 8 ONO 1022,5 13 0,0
22.06.2018 21:00:00 19,0 15,1 18 10 ONO 1022,4 14 0,0
22.06.2018 20:00:00 19,5 15,6 21 11 O 1022,3 15 -
22.06.2018 19:00:00 19,8 16,2 21 11 ONO 1022,5 15 0,0
22.06.2018 18:00:00 20,1 16,5 22 12 ONO 1022,4 15 0,0
22.06.2018 17:00:00 20,4 16,8 22 12 ONO 1022,2 15 -
22.06.2018 16:00:00 20,7 17,1 24 13 ONO 1022,4 16 0,0
22.06.2018 15:00:00 21,0 17,6 26 14 ONO 1022,4 16 0,0
22.06.2018 14:00:00 21,5 17,7 22 12 ONO 1022,7 15 -
22.06.2018 13:00:00 21,2 18,2 18 10 ONO 1022,8 14 0,0
22.06.2018 12:00:00 21,1 19,4 9 5 NNO 1022,8 10 0,0
22.06.2018 11:00:00 20,3 18,4 5 3 N 1022,7 12 -
22.06.2018 10:00:00 19,9 18,6 5 3 W 1022,9 15 0,0
22.06.2018 09:00:00 19,2 18,4 8 4 W 1022,7 10 0,0
22.06.2018 08:00:00 18,7 18,2 8 4 W 1022,5 8 -
22.06.2018 07:00:00 18,2 17,7 8 4 WZW 1022,4 7 0,0
22.06.2018 06:00:00 18,2 17,6 5 3 W 1022,2 6 0,0
22.06.2018 05:00:00 18,7 18,0 2 1 NW 1022,2 10 -
22.06.2018 04:00:00 18,8 18,1 5 3 NW 1022,6 7 0,0
22.06.2018 03:00:00 18,9 18,2 5 3 NNW 1022,9 8 0,0
22.06.2018 02:00:00 19,0 18,5 5 3 N 1023,1 8 -
22.06.2018 01:00:00 19,0 18,5 9 5 N 1023,5 6 0,0
22.06.2018 00:00:00 19,1 18,6 9 5 N 1023,5 7 0,0
21.06.2018 23:00:00 19,1 18,6 11 6 N 1023,1 10 -
21.06.2018 22:00:00 19,2 18,7 9 5 N 1022,7 7 0,0
21.06.2018 21:00:00 19,2 18,9 8 4 N 1022,4 6 0,0
21.06.2018 20:00:00 19,3 18,8 16 9 W 1022,3 1,0 -
21.06.2018 19:00:00 19,9 18,7 18 10 W 1021,6 9 0,0
21.06.2018 18:00:00 20,6 18,9 18 10 W 1021,7 13 0,0
21.06.2018 17:00:00 21,5 19,1 21 11 W 1021,4 15 -
21.06.2018 16:00:00 21,8 19,0 18 10 W 1021,6 17 0,0
21.06.2018 15:00:00 21,3 19,0 18 10 W 1021,7 16 0,0
21.06.2018 14:00:00 20,4 18,7 18 10 W 1021,9 12 -
21.06.2018 13:00:00 21,0 19,5 18 10 W 1021,8 15 0,0
21.06.2018 12:00:00 20,4 18,7 18 10 W 1021,6 14 0,0
21.06.2018 11:00:00 19,4 18,7 16 9 W 1021,3 5 -
21.06.2018 10:00:00 19,1 18,4 13 7 W 1020,9 4,1 0,0
21.06.2018 09:00:00 19,1 18,3 9 5 W 1020,5 6 0,0
21.06.2018 08:00:00 18,9 18,1 8 4 WZW 1020,5 4,0 -
21.06.2018 07:00:00 18,8 18,0 9 5 WZW 1020,6 8 0,0
21.06.2018 06:00:00 18,7 17,9 15 8 W 1020,6 8 0,0
21.06.2018 05:00:00 18,8 17,8 13 7 WZW 1020,5 8 -
21.06.2018 04:00:00 18,9 17,7 11 6 WZW 1020,4 7 0,0
21.06.2018 03:00:00 19,1 17,8 9 5 WZW 1020,9 10 0,0
21.06.2018 02:00:00 19,2 17,7 9 5 WZW 1020,9 10 -
21.06.2018 01:00:00 19,2 17,9 11 6 W 1021,0 11 0,0
21.06.2018 00:00:00 19,1 17,9 13 7 W 1020,9 10 0,0
20.06.2018 23:00:00 19,3 18,3 13 7 W 1020,3 8 -
20.06.2018 22:00:00 19,3 18,1 11 6 W 1019,9 9 0,0
20.06.2018 21:00:00 19,7 18,5 13 7 WNW 1019,1 8 0,0
20.06.2018 20:00:00 20,0 18,3 13 7 WNW 1018,7 8 -
20.06.2018 19:00:00 20,5 18,1 13 7 WNW 1018,5 10 0,0
20.06.2018 18:00:00 20,4 18,2 13 7 NW 1018,7 10 0,0
20.06.2018 17:00:00 20,7 18,3 13 7 NW 1018,8 8 -
20.06.2018 16:00:00 20,7 18,3 11 6 NW 1018,8 9 0,0
20.06.2018 15:00:00 20,6 18,2 11 6 NW 1018,8 8 0,0
20.06.2018 14:00:00 21,0 18,9 11 6 NW 1019,0 8 -
20.06.2018 13:00:00 20,4 18,5 9 5 NNW 1019,2 8 0,0
20.06.2018 12:00:00 20,2 18,5 5 3 NNW 1019,2 8 0,0
20.06.2018 11:00:00 20,0 18,0 9 5 NW 1018,9 7 -
20.06.2018 10:00:00 19,8 17,9 8 4 W 1018,8 12 0,0
20.06.2018 09:00:00 19,0 17,7 11 6 W 1018,8 8 0,0
20.06.2018 08:00:00 18,0 17,0 9 5 WZW 1018,7 9 -
20.06.2018 07:00:00 17,1 16,6 5 3 Z 1018,3 8 0,0
20.06.2018 06:00:00 17,0 16,5 5 3 O 1018,3 6 0,0
20.06.2018 05:00:00 17,2 16,6 5 3 ONO 1018,4 12 -
20.06.2018 04:00:00 17,1 16,3 8 4 O 1018,5 10 0,0
20.06.2018 03:00:00 17,6 16,6 9 5 O 1019,1 11 0,0
20.06.2018 02:00:00 18,1 17,1 15 8 O 1019,4 15 -
20.06.2018 01:00:00 18,5 16,8 13 7 O 1020,0 10 0,0
20.06.2018 00:00:00 18,4 16,7 16 9 O 1020,3 12 0,0
19.06.2018 23:00:00 18,4 16,6 21 11 O 1020,5 20 -
19.06.2018 22:00:00 18,3 16,8 31 17 O 1020,0 15 0,0
19.06.2018 21:00:00 18,5 16,8 29 16 O 1020,3 16 0,0
19.06.2018 20:00:00 19,1 16,9 31 17 O 1020,4 10 -
19.06.2018 19:00:00 19,0 16,6 35 19 O 1020,6 18 0,0
19.06.2018 18:00:00 19,5 16,7 39 21 O 1021,2 20 0,0
19.06.2018 17:00:00 19,7 16,3 34 18 O 1021,8 12 -
19.06.2018 16:00:00 19,6 17,2 29 16 O 1022,1 19 0,0
19.06.2018 15:00:00 20,3 17,5 28 15 ONO 1022,6 20 0,0
19.06.2018 14:00:00 19,2 17,2 24 13 ONO 1023,3 14 -
19.06.2018 13:00:00 18,8 16,8 21 11 ONO 1024,0 19 0,0
19.06.2018 12:00:00 17,9 16,2 16 9 O 1024,5 19 0,0
19.06.2018 11:00:00 18,1 16,3 16 9 ONO 1024,6 15 -
19.06.2018 10:00:00 18,1 16,3 15 8 O 1025,0 20 0,0
19.06.2018 09:00:00 16,7 16,2 9 5 ZZO 1025,4 20 0,0
19.06.2018 08:00:00 16,3 15,8 13 7 ZO 1025,6 18 -
19.06.2018 07:00:00 16,2 15,7 9 5 O 1025,6 8 0,4
19.06.2018 06:00:00 16,2 15,7 8 4 OZO 1025,6 9 0,2
19.06.2018 05:00:00 15,9 15,3 8 4 OZO 1025,8 20 -
19.06.2018 04:00:00 16,1 15,6 13 7 NO 1026,1 7 0,4
19.06.2018 03:00:00 16,7 15,9 13 7 NNO 1026,1 3,9 0,4
19.06.2018 02:00:00 16,7 15,9 4 2 Z 1026,6 15 -

tt = temperatuur
td = dauwpunt
ff = windsnelheid
dd = windrichting
ppp = luchtdruk
vv = zicht
rr = neerslag

Weerstations in de omgeving